Location: Cahas Mountain Overlook
(37.0833°N, 80.1000°W)
Time: 19:10:00
(UTC-04:00)

Explorer 7 - Pass Details

Date: 13 February 2026
Orbit: 430 x 541 km, 50.2° (Epoch: 13 March)

Event Time Altitude Azimuth Distance (km) Brightness Sun altitude
Rises 18:15:16 0° 277° (W) 2,474 11.8 -4.1°
Reaches altitude 10° 18:17:56 10° 298° (WNW) 1,625 10.1 -4.6°
Maximum altitude 18:20:27 17° 341° (NNW) 1,264 8.8 -5.1°
Drops below altitude 10° 18:23:02 10° 25° (NNE) 1,677 8.9 -5.6°
Enters shadow 18:25:10 - 42° (NE) 2,348 9.5 -6.0°
Sets 18:25:51 0° 45° (NE) 2,589 - -6.1°
